Time,TemperatureF,DewpointF,PressureIn,WindDirection,WindDirectionDegrees,WindSpeedMPH,WindSpeedGustMPH,Humidity,HourlyPrecipIn,Conditions,Clouds,dailyrainin,SoftwareType,DateUTC
2013-06-07 00:00:00,76.7,63.6,29.92,ESE,111,0.0,1.0,64,0.00,,SCT110,0.00,VWS V14.01,2013-06-07 05:00:00,
2013-06-07 00:02:00,76.3,62.8,29.93,ESE,123,1.0,6.0,63,0.00,,OVC070,0.00,VWS V14.01,2013-06-07 05:02:00,
2013-06-07 00:07:00,76.2,62.7,29.93,ESE,123,0.0,6.0,63,0.00,,OVC070,0.00,VWS V14.01,2013-06-07 05:07:00,
2013-06-07 00:10:00,76.3,63.2,29.92,East,96,0.0,1.0,64,0.00,,SCT110,0.00,VWS V14.01,2013-06-07 05:10:00,
2013-06-07 00:12:00,76.0,62.0,29.93,ESE,123,0.0,1.0,62,0.00,,OVC070,0.00,VWS V14.01,2013-06-07 05:12:00,
2013-06-07 00:17:00,76.0,63.0,29.93,ESE,123,0.0,1.0,64,0.00,,OVC070,0.00,VWS V14.01,2013-06-07 05:17:00,
2013-06-07 00:20:00,76.2,62.7,29.93,ESE,123,0.0,6.0,63,0.00,,SCT110,0.00,VWS V14.01,2013-06-07 05:20:00,
2013-06-07 00:22:00,75.8,62.3,29.93,SE,128,0.0,2.0,63,0.00,,OVC070,0.00,VWS V14.01,2013-06-07 05:22:00,
2013-06-07 00:27:00,75.6,62.1,29.93,SE,136,0.0,2.0,63,0.00,,OVC070,0.00,VWS V14.01,2013-06-07 05:27:00,
2013-06-07 00:30:00,76.0,63.0,29.93,ESE,123,0.0,1.0,64,0.00,,SCT110,0.00,VWS V14.01,2013-06-07 05:30:00,
2013-06-07 00:32:00,75.5,62.5,29.93,SE,136,0.0,0.0,64,0.00,,OVC070,0.00,VWS V14.01,2013-06-07 05:32:00,
2013-06-07 00:37:00,75.5,62.5,29.93,SE,136,0.0,0.0,64,0.00,,OVC070,0.00,VWS V14.01,2013-06-07 05:37:00,
2013-06-07 00:40:00,75.6,62.6,29.93,SE,136,0.0,2.0,64,0.00,,SCT110,0.00,VWS V14.01,2013-06-07 05:40:00,
2013-06-07 00:42:00,75.3,62.7,29.93,SE,136,0.0,0.0,65,0.00,,OVC070,0.00,VWS V14.01,2013-06-07 05:42:00,
2013-06-07 00:47:00,75.1,62.5,29.94,SE,136,0.0,0.0,65,0.00,,OVC070,0.00,VWS V14.01,2013-06-07 05:47:00,
2013-06-07 00:50:00,75.5,62.5,29.93,SE,136,0.0,0.0,64,0.00,,SCT110,0.00,VWS V14.01,2013-06-07 05:50:00,
2013-06-07 00:52:00,74.9,62.8,29.94,SW,236,0.0,1.0,66,0.00,,OVC070,0.00,VWS V14.01,2013-06-07 05:52:00,
2013-06-07 00:57:00,74.8,62.3,29.94,SW,236,0.0,1.0,65,0.00,,OVC070,0.00,VWS V14.01,2013-06-07 05:57:00,
2013-06-07 01:00:00,75.1,62.5,29.94,SE,136,0.0,0.0,65,0.00,,SCT110,0.00,VWS V14.01,2013-06-07 06:00:00,
2013-06-07 01:02:00,74.6,62.5,29.93,SW,232,0.0,1.0,66,0.00,,OVC075,0.00,VWS V14.01,2013-06-07 06:02:00,
2013-06-07 01:07:00,74.4,62.3,29.93,SW,232,0.0,1.0,66,0.00,,OVC075,0.00,VWS V14.01,2013-06-07 06:07:00,
2013-06-07 01:10:00,74.8,62.7,29.94,SW,236,0.0,1.0,66,0.00,,SCT110,0.00,VWS V14.01,2013-06-07 06:10:00,
2013-06-07 01:12:00,74.2,62.5,29.93,SW,232,0.0,1.0,67,0.00,,OVC075,0.00,VWS V14.01,2013-06-07 06:12:00,
2013-06-07 01:17:00,74.1,62.0,29.92,SW,215,0.0,1.0,66,0.00,,OVC075,0.00,VWS V14.01,2013-06-07 06:17:00,
2013-06-07 01:20:00,74.4,62.3,29.93,SW,232,0.0,1.0,66,0.00,,SCT110,0.00,VWS V14.01,2013-06-07 06:20:00,
2013-06-07 01:22:00,73.9,62.3,29.92,SSW,202,0.0,1.0,67,0.00,,OVC075,0.00,VWS V14.01,2013-06-07 06:22:00,
2013-06-07 01:27:00,73.7,62.1,29.92,SSW,202,0.0,1.0,67,0.00,,OVC075,0.00,VWS V14.01,2013-06-07 06:27:00,
2013-06-07 01:30:00,74.1,62.0,29.92,SW,215,0.0,1.0,66,0.00,,SCT110,0.00,VWS V14.01,2013-06-07 06:30:00,
2013-06-07 01:32:00,73.5,62.3,29.92,SSW,202,0.0,0.0,68,0.00,,OVC075,0.00,VWS V14.01,2013-06-07 06:32:00,
2013-06-07 01:37:00,73.4,62.2,29.92,SSW,202,0.0,0.0,68,0.00,,OVC075,0.00,VWS V14.01,2013-06-07 06:37:00,
2013-06-07 01:40:00,73.7,62.1,29.92,SSW,202,0.0,1.0,67,0.00,,SCT110,0.00,VWS V14.01,2013-06-07 06:40:00,
2013-06-07 01:42:00,73.2,62.4,29.92,SSW,202,0.0,0.0,69,0.00,,OVC075,0.00,VWS V14.01,2013-06-07 06:42:00,
2013-06-07 01:47:00,73.0,62.7,29.91,SSW,202,0.0,0.0,70,0.00,,OVC075,0.00,VWS V14.01,2013-06-07 06:47:00,
2013-06-07 01:50:00,73.4,62.2,29.92,SSW,202,0.0,0.0,68,0.00,,SCT110,0.00,VWS V14.01,2013-06-07 06:50:00,
2013-06-07 01:52:00,72.7,62.4,29.91,SSW,202,0.0,0.0,70,0.00,,OVC075,0.00,VWS V14.01,2013-06-07 06:52:00,
2013-06-07 01:57:00,72.5,62.6,29.91,SSW,202,0.0,1.0,71,0.00,,OVC075,0.00,VWS V14.01,2013-06-07 06:57:00,
2013-06-07 02:00:00,73.0,62.7,29.91,SSW,202,0.0,0.0,70,0.00,,SCT110,0.00,VWS V14.01,2013-06-07 07:00:00,
2013-06-07 02:02:00,72.3,62.4,29.92,SSW,202,0.0,0.0,71,0.00,,CLR,0.00,VWS V14.01,2013-06-07 07:02:00,
2013-06-07 02:07:00,72.2,62.7,29.92,SSW,202,0.0,0.0,72,0.00,,CLR,0.00,VWS V14.01,2013-06-07 07:07:00,
2013-06-07 02:10:00,72.5,62.6,29.91,SSW,202,0.0,1.0,71,0.00,,SCT110,0.00,VWS V14.01,2013-06-07 07:10:00,
2013-06-07 02:12:00,72.0,62.5,29.92,SSW,202,0.0,0.0,72,0.00,,CLR,0.00,VWS V14.01,2013-06-07 07:12:00,
2013-06-07 02:17:00,71.8,62.7,29.92,SSW,202,0.0,0.0,73,0.00,,CLR,0.00,VWS V14.01,2013-06-07 07:17:00,
2013-06-07 02:20:00,72.2,62.7,29.92,SSW,202,0.0,0.0,72,0.00,,SCT110,0.00,VWS V14.01,2013-06-07 07:20:00,
2013-06-07 02:22:00,71.6,62.9,29.92,SSW,202,0.0,0.0,74,0.00,,CLR,0.00,VWS V14.01,2013-06-07 07:22:00,
2013-06-07 02:27:00,71.5,63.2,29.92,SSW,202,0.0,0.0,75,0.00,,CLR,0.00,VWS V14.01,2013-06-07 07:27:00,
2013-06-07 02:30:00,71.8,62.7,29.92,SSW,202,0.0,0.0,73,0.00,,SCT110,0.00,VWS V14.01,2013-06-07 07:30:00,
2013-06-07 02:32:00,71.3,62.6,29.92,SSW,202,0.0,0.0,74,0.00,,CLR,0.00,VWS V14.01,2013-06-07 07:32:00,
2013-06-07 02:37:00,71.1,62.4,29.92,SSW,202,0.0,0.0,74,0.00,,CLR,0.00,VWS V14.01,2013-06-07 07:37:00,
2013-06-07 02:40:00,71.5,63.2,29.92,SSW,202,0.0,0.0,75,0.00,,SCT110,0.00,VWS V14.01,2013-06-07 07:40:00,
2013-06-07 02:42:00,71.0,63.1,29.92,SSW,202,0.0,0.0,76,0.00,,CLR,0.00,VWS V14.01,2013-06-07 07:42:00,
2013-06-07 02:47:00,70.8,62.5,29.92,SSW,202,0.0,0.0,75,0.00,,CLR,0.00,VWS V14.01,2013-06-07 07:47:00,
2013-06-07 02:50:00,71.1,62.4,29.92,SSW,202,0.0,0.0,74,0.00,,SCT110,0.00,VWS V14.01,2013-06-07 07:50:00,
2013-06-07 02:52:00,70.6,62.7,29.92,SSW,202,0.0,0.0,76,0.00,,CLR,0.00,VWS V14.01,2013-06-07 07:52:00,
2013-06-07 02:57:00,70.4,62.5,29.92,SSW,202,0.0,0.0,76,0.00,,CLR,0.00,VWS V14.01,2013-06-07 07:57:00,
2013-06-07 03:00:00,70.8,62.5,29.92,SSW,202,0.0,0.0,75,0.00,,SCT110,0.00,VWS V14.01,2013-06-07 08:00:00,
2013-06-07 03:02:00,70.3,62.8,29.92,SSW,202,0.0,0.0,77,0.00,,CLR,0.00,VWS V14.01,2013-06-07 08:02:00,
2013-06-07 03:07:00,70.1,62.6,29.92,SSW,202,0.0,0.0,77,0.00,,CLR,0.00,VWS V14.01,2013-06-07 08:07:00,
2013-06-07 03:10:00,70.4,62.5,29.92,SSW,202,0.0,0.0,76,0.00,,SCT110,0.00,VWS V14.01,2013-06-07 08:10:00,
2013-06-07 03:12:00,70.1,62.6,29.92,SSW,202,0.0,0.0,77,0.00,,CLR,0.00,VWS V14.01,2013-06-07 08:12:00,
2013-06-07 03:17:00,69.9,62.4,29.92,SSW,202,0.0,0.0,77,0.00,,CLR,0.00,VWS V14.01,2013-06-07 08:17:00,
2013-06-07 03:20:00,70.1,62.6,29.92,SSW,202,0.0,0.0,77,0.00,,SCT110,0.00,VWS V14.01,2013-06-07 08:20:00,
2013-06-07 03:22:00,69.8,62.6,29.92,SSW,202,0.0,0.0,78,0.00,,CLR,0.00,VWS V14.01,2013-06-07 08:22:00,
2013-06-07 03:27:00,69.6,62.4,29.92,SSW,202,0.0,0.0,78,0.00,,CLR,0.00,VWS V14.01,2013-06-07 08:27:00,
2013-06-07 03:30:00,69.9,62.4,29.92,SSW,202,0.0,0.0,77,0.00,,SCT110,0.00,VWS V14.01,2013-06-07 08:30:00,
2013-06-07 03:32:00,69.6,62.4,29.92,SSW,202,0.0,0.0,78,0.00,,CLR,0.00,VWS V14.01,2013-06-07 08:32:00,
2013-06-07 03:37:00,69.6,62.4,29.92,SSW,202,0.0,0.0,78,0.00,,CLR,0.00,VWS V14.01,2013-06-07 08:37:00,
2013-06-07 03:40:00,69.6,62.4,29.92,SSW,202,0.0,0.0,78,0.00,,SCT110,0.00,VWS V14.01,2013-06-07 08:40:00,
2013-06-07 03:42:00,69.4,62.2,29.92,SSW,202,0.0,0.0,78,0.00,,CLR,0.00,VWS V14.01,2013-06-07 08:42:00,
2013-06-07 03:47:00,69.4,63.0,29.92,SSW,202,0.0,0.0,80,0.00,,CLR,0.00,VWS V14.01,2013-06-07 08:47:00,
2013-06-07 03:50:00,69.6,62.4,29.92,SSW,202,0.0,0.0,78,0.00,,SCT110,0.00,VWS V14.01,2013-06-07 08:50:00,
2013-06-07 03:52:00,69.3,62.5,29.92,SSW,202,0.0,0.0,79,0.00,,CLR,0.00,VWS V14.01,2013-06-07 08:52:00,
2013-06-07 03:57:00,69.1,62.3,29.92,SSW,202,0.0,0.0,79,0.00,,CLR,0.00,VWS V14.01,2013-06-07 08:57:00,
2013-06-07 04:00:00,69.4,63.0,29.92,SSW,202,0.0,0.0,80,0.00,,SCT110,0.00,VWS V14.01,2013-06-07 09:00:00,
2013-06-07 04:02:00,69.1,62.7,29.92,SSW,202,0.0,0.0,80,0.00,,CLR,0.00,VWS V14.01,2013-06-07 09:02:00,
2013-06-07 04:07:00,68.9,62.1,29.92,SSW,202,0.0,0.0,79,0.00,,CLR,0.00,VWS V14.01,2013-06-07 09:07:00,
2013-06-07 04:10:00,69.1,62.3,29.92,SSW,202,0.0,0.0,79,0.00,,SCT110,0.00,VWS V14.01,2013-06-07 09:10:00,
2013-06-07 04:12:00,68.9,62.5,29.92,SSW,202,0.0,0.0,80,0.00,,CLR,0.00,VWS V14.01,2013-06-07 09:12:00,
2013-06-07 04:17:00,68.8,62.4,29.93,SSW,202,0.0,0.0,80,0.00,,CLR,0.00,VWS V14.01,2013-06-07 09:17:00,
2013-06-07 04:20:00,68.9,62.1,29.92,SSW,202,0.0,0.0,79,0.00,,SCT110,0.00,VWS V14.01,2013-06-07 09:20:00,
2013-06-07 04:22:00,68.8,62.4,29.93,SSW,202,0.0,0.0,80,0.00,,CLR,0.00,VWS V14.01,2013-06-07 09:22:00,
2013-06-07 04:27:00,68.8,62.4,29.93,SSW,202,0.0,0.0,80,0.00,,CLR,0.00,VWS V14.01,2013-06-07 09:27:00,
2013-06-07 04:30:00,68.8,62.4,29.93,SSW,202,0.0,0.0,80,0.00,,SCT110,0.00,VWS V14.01,2013-06-07 09:30:00,
2013-06-07 04:32:00,68.8,62.7,29.92,SSW,202,0.0,0.0,81,0.00,,CLR,0.00,VWS V14.01,2013-06-07 09:32:00,
2013-06-07 04:37:00,68.6,62.5,29.92,SSW,202,0.0,0.0,81,0.00,,CLR,0.00,VWS V14.01,2013-06-07 09:37:00,
2013-06-07 04:40:00,68.8,62.4,29.93,SSW,202,0.0,0.0,80,0.00,,SCT110,0.00,VWS V14.01,2013-06-07 09:40:00,
2013-06-07 04:42:00,68.6,62.5,29.92,SSW,202,0.0,0.0,81,0.00,,CLR,0.00,VWS V14.01,2013-06-07 09:42:00,
2013-06-07 04:47:00,68.4,62.3,29.92,SSW,202,0.0,0.0,81,0.00,,CLR,0.00,VWS V14.01,2013-06-07 09:47:00,
2013-06-07 04:50:00,68.6,62.5,29.92,SSW,202,0.0,0.0,81,0.00,,SCT110,0.00,VWS V14.01,2013-06-07 09:50:00,
2013-06-07 04:52:00,68.4,62.3,29.92,SSW,202,0.0,0.0,81,0.00,,CLR,0.00,VWS V14.01,2013-06-07 09:52:00,
2013-06-07 04:57:00,68.3,62.6,29.92,SSW,202,0.0,0.0,82,0.00,,CLR,0.00,VWS V14.01,2013-06-07 09:57:00,
2013-06-07 05:00:00,68.4,62.3,29.92,SSW,202,0.0,0.0,81,0.00,,SCT110,0.00,VWS V14.01,2013-06-07 10:00:00,
2013-06-07 05:02:00,68.3,62.6,29.92,SSW,202,0.0,0.0,82,0.00,,FEW100,0.00,VWS V14.01,2013-06-07 10:02:00,
2013-06-07 05:07:00,68.3,62.6,29.92,SSW,202,0.0,0.0,82,0.00,,FEW100,0.00,VWS V14.01,2013-06-07 10:07:00,
2013-06-07 05:10:00,68.3,62.6,29.92,SSW,202,0.0,0.0,82,0.00,,SCT110,0.00,VWS V14.01,2013-06-07 10:10:00,
2013-06-07 05:12:00,68.3,62.6,29.92,SSW,202,0.0,0.0,82,0.00,,FEW100,0.00,VWS V14.01,2013-06-07 10:12:00,
2013-06-07 05:17:00,68.3,62.6,29.93,SSW,202,0.0,0.0,82,0.00,,FEW100,0.00,VWS V14.01,2013-06-07 10:17:00,
2013-06-07 05:20:00,68.3,62.6,29.92,SSW,202,0.0,0.0,82,0.00,,SCT110,0.00,VWS V14.01,2013-06-07 10:20:00,
2013-06-07 05:22:00,68.3,62.9,29.93,SSW,202,0.0,0.0,83,0.00,,FEW100,0.00,VWS V14.01,2013-06-07 10:22:00,
2013-06-07 05:27:00,68.3,62.9,29.93,SSW,202,0.0,0.0,83,0.00,,FEW100,0.00,VWS V14.01,2013-06-07 10:27:00,
2013-06-07 05:30:00,68.3,62.6,29.93,SSW,202,0.0,1.0,82,0.00,,SCT110,0.00,VWS V14.01,2013-06-07 10:30:00,
2013-06-07 05:32:00,68.1,62.8,29.93,SSW,202,0.0,0.0,83,0.00,,FEW100,0.00,VWS V14.01,2013-06-07 10:32:00,
2013-06-07 05:37:00,68.1,62.8,29.93,SSW,202,0.0,0.0,83,0.00,,FEW100,0.00,VWS V14.01,2013-06-07 10:37:00,
2013-06-07 05:40:00,68.3,62.9,29.93,SSW,202,0.0,0.0,83,0.00,,SCT110,0.00,VWS V14.01,2013-06-07 10:40:00,
2013-06-07 05:42:00,67.9,62.5,29.93,SSW,202,0.0,0.0,83,0.00,,FEW100,0.00,VWS V14.01,2013-06-07 10:42:00,
2013-06-07 05:47:00,67.9,62.5,29.92,SSW,202,0.0,0.0,83,0.00,,FEW100,0.00,VWS V14.01,2013-06-07 10:47:00,
2013-06-07 05:50:00,68.1,62.8,29.93,SSW,202,0.0,0.0,83,0.00,,SCT110,0.00,VWS V14.01,2013-06-07 10:50:00,
2013-06-07 05:52:00,67.8,62.5,29.92,SSW,202,0.0,0.0,83,0.00,,FEW100,0.00,VWS V14.01,2013-06-07 10:52:00,
2013-06-07 05:57:00,67.8,62.8,29.92,SSW,202,0.0,0.0,84,0.00,,FEW100,0.00,VWS V14.01,2013-06-07 10:57:00,
2013-06-07 06:00:00,67.9,62.5,29.92,SSW,202,0.0,0.0,83,0.00,,SCT110,0.00,VWS V14.01,2013-06-07 11:00:00,
2013-06-07 06:02:00,67.8,62.8,29.93,SSW,202,0.0,0.0,84,0.00,,FEW100,0.00,VWS V14.01,2013-06-07 11:02:00,
2013-06-07 06:07:00,67.6,62.6,29.93,SSW,202,0.0,0.0,84,0.00,,FEW100,0.00,VWS V14.01,2013-06-07 11:07:00,
2013-06-07 06:10:00,67.8,62.8,29.92,SSW,202,0.0,0.0,84,0.00,,SCT110,0.00,VWS V14.01,2013-06-07 11:10:00,
2013-06-07 06:12:00,67.6,62.6,29.93,SSW,202,0.0,0.0,84,0.00,,FEW100,0.00,VWS V14.01,2013-06-07 11:12:00,
2013-06-07 06:17:00,67.4,62.4,29.93,SSW,202,0.0,0.0,84,0.00,,FEW100,0.00,VWS V14.01,2013-06-07 11:17:00,
2013-06-07 06:20:00,67.6,62.6,29.93,SSW,202,0.0,0.0,84,0.00,,SCT110,0.00,VWS V14.01,2013-06-07 11:20:00,
2013-06-07 06:22:00,67.4,62.7,29.93,SSW,202,0.0,0.0,85,0.00,,FEW100,0.00,VWS V14.01,2013-06-07 11:22:00,
2013-06-07 06:27:00,67.3,62.6,29.93,SSW,202,0.0,0.0,85,0.00,,FEW100,0.00,VWS V14.01,2013-06-07 11:27:00,
2013-06-07 06:30:00,67.4,62.4,29.93,SSW,202,0.0,0.0,84,0.00,,SCT110,0.00,VWS V14.01,2013-06-07 11:30:00,
2013-06-07 06:32:00,67.3,62.6,29.93,SSW,202,0.0,0.0,85,0.00,,FEW100,0.00,VWS V14.01,2013-06-07 11:32:00,
2013-06-07 06:37:00,67.1,62.8,29.93,SSW,202,0.0,0.0,86,0.00,,FEW100,0.00,VWS V14.01,2013-06-07 11:37:00,
2013-06-07 06:40:00,67.3,62.6,29.93,SSW,202,0.0,0.0,85,0.00,,SCT110,0.00,VWS V14.01,2013-06-07 11:40:00,
2013-06-07 06:42:00,67.1,62.8,29.93,SSW,202,0.0,0.0,86,0.00,,FEW100,0.00,VWS V14.01,2013-06-07 11:42:00,
2013-06-07 06:47:00,66.9,62.6,29.93,SSW,202,0.0,0.0,86,0.00,,FEW100,0.00,VWS V14.01,2013-06-07 11:47:00,
2013-06-07 06:50:00,67.1,62.8,29.93,SSW,202,0.0,0.0,86,0.00,,SCT110,0.00,VWS V14.01,2013-06-07 11:50:00,
2013-06-07 06:52:00,66.9,62.6,29.93,SSW,202,0.0,0.0,86,0.00,,FEW100,0.00,VWS V14.01,2013-06-07 11:52:00,
2013-06-07 06:57:00,66.9,62.6,29.93,SSW,202,0.0,0.0,86,0.00,,FEW100,0.00,VWS V14.01,2013-06-07 11:57:00,
2013-06-07 07:00:00,66.9,62.6,29.93,SSW,202,0.0,0.0,86,0.00,,SCT110,0.00,VWS V14.01,2013-06-07 12:00:00,
2013-06-07 07:02:00,66.9,62.6,29.93,SSW,202,0.0,0.0,86,0.00,,FEW100,0.00,VWS V14.01,2013-06-07 12:02:00,
2013-06-07 07:07:00,67.1,62.8,29.93,SSW,202,0.0,0.0,86,0.00,,CLR,0.00,VWS V14.01,2013-06-07 12:07:00,
2013-06-07 07:10:00,66.9,62.6,29.93,SSW,202,0.0,0.0,86,0.00,,SCT110,0.00,VWS V14.01,2013-06-07 12:10:00,
2013-06-07 07:12:00,67.1,63.1,29.93,SSW,202,0.0,0.0,87,0.00,,CLR,0.00,VWS V14.01,2013-06-07 12:12:00,
2013-06-07 07:17:00,67.3,63.3,29.93,SSW,202,0.0,0.0,87,0.00,,CLR,0.00,VWS V14.01,2013-06-07 12:17:00,
2013-06-07 07:20:00,67.1,62.8,29.93,SSW,202,0.0,0.0,86,0.00,,SCT110,0.00,VWS V14.01,2013-06-07 12:20:00,
2013-06-07 07:22:00,67.4,63.4,29.93,SSW,202,0.0,0.0,87,0.00,,CLR,0.00,VWS V14.01,2013-06-07 12:22:00,
2013-06-07 07:27:00,67.6,63.6,29.93,SSW,202,0.0,0.0,87,0.00,,CLR,0.00,VWS V14.01,2013-06-07 12:27:00,
2013-06-07 07:30:00,67.3,63.3,29.93,SSW,202,0.0,0.0,87,0.00,,SCT110,0.00,VWS V14.01,2013-06-07 12:30:00,
2013-06-07 07:32:00,67.8,63.8,29.94,SSW,202,0.0,0.0,87,0.00,,CLR,0.00,VWS V14.01,2013-06-07 12:32:00,
2013-06-07 07:37:00,67.9,63.9,29.94,SSW,202,0.0,0.0,87,0.00,,CLR,0.00,VWS V14.01,2013-06-07 12:37:00,
2013-06-07 07:40:00,67.6,63.6,29.93,SSW,202,0.0,0.0,87,0.00,,SCT110,0.00,VWS V14.01,2013-06-07 12:40:00,
2013-06-07 07:42:00,68.1,64.1,29.94,SE,146,0.0,0.0,87,0.00,,CLR,0.00,VWS V14.01,2013-06-07 12:42:00,
2013-06-07 07:47:00,68.4,64.1,29.94,ESE,119,0.0,4.0,86,0.00,,CLR,0.00,VWS V14.01,2013-06-07 12:47:00,
2013-06-07 07:50:00,67.9,63.9,29.94,SSW,202,0.0,0.0,87,0.00,,SCT110,0.00,VWS V14.01,2013-06-07 12:50:00,
2013-06-07 07:52:00,68.6,63.9,29.94,ESE,119,0.0,1.0,85,0.00,,CLR,0.00,VWS V14.01,2013-06-07 12:52:00,
2013-06-07 07:57:00,68.9,64.2,29.94,ESE,117,0.0,1.0,85,0.00,,CLR,0.00,VWS V14.01,2013-06-07 12:57:00,
2013-06-07 08:00:00,68.4,64.1,29.94,ESE,119,0.0,4.0,86,0.00,,SCT110,0.00,VWS V14.01,2013-06-07 13:00:00,
2013-06-07 08:02:00,69.3,64.3,29.95,ESE,114,0.0,1.0,84,0.00,,SCT020,0.00,VWS V14.01,2013-06-07 13:02:00,
2013-06-07 08:07:00,69.6,64.6,29.95,ESE,114,0.0,1.0,84,0.00,,SCT020,0.00,VWS V14.01,2013-06-07 13:07:00,
2013-06-07 08:10:00,68.9,64.2,29.94,ESE,117,0.0,1.0,85,0.00,,SCT110,0.00,VWS V14.01,2013-06-07 13:10:00,
2013-06-07 08:12:00,69.9,64.5,29.95,East,96,1.0,4.0,83,0.00,,SCT020,0.00,VWS V14.01,2013-06-07 13:12:00,
2013-06-07 08:17:00,70.3,64.6,29.95,ESE,103,0.0,4.0,82,0.00,,SCT020,0.00,VWS V14.01,2013-06-07 13:17:00,
2013-06-07 08:20:00,69.6,64.6,29.95,ESE,114,0.0,1.0,84,0.00,,SCT110,0.00,VWS V14.01,2013-06-07 13:20:00,
2013-06-07 08:22:00,70.4,64.7,29.95,ESE,103,0.0,0.0,82,0.00,,SCT020,0.00,VWS V14.01,2013-06-07 13:22:00,
2013-06-07 08:27:00,70.6,64.5,29.95,ESE,121,0.0,1.0,81,0.00,,SCT020,0.00,VWS V14.01,2013-06-07 13:27:00,
2013-06-07 08:30:00,70.3,64.6,29.95,ESE,103,0.0,4.0,82,0.00,,SCT110,0.00,VWS V14.01,2013-06-07 13:30:00,
2013-06-07 08:32:00,70.8,64.7,29.96,ESE,122,0.0,4.0,81,0.00,,SCT020,0.00,VWS V14.01,2013-06-07 13:32:00,
2013-06-07 08:37:00,71.1,65.0,29.96,ESE,119,0.0,4.0,81,0.00,,SCT020,0.00,VWS V14.01,2013-06-07 13:37:00,
2013-06-07 08:40:00,70.6,64.5,29.95,ESE,121,0.0,1.0,81,0.00,,SCT110,0.00,VWS V14.01,2013-06-07 13:40:00,
2013-06-07 08:42:00,71.6,65.1,29.96,ESE,123,0.0,1.0,80,0.00,,SCT020,0.00,VWS V14.01,2013-06-07 13:42:00,
2013-06-07 08:47:00,72.5,65.3,29.97,North,10,2.0,3.0,78,0.00,,SCT020,0.00,VWS V14.01,2013-06-07 13:47:00,
2013-06-07 08:50:00,71.1,65.0,29.96,ESE,119,0.0,4.0,81,0.00,,SCT110,0.00,VWS V14.01,2013-06-07 13:50:00,
2013-06-07 08:52:00,73.2,65.2,29.97,ENE,71,0.0,2.0,76,0.00,,SCT020,0.00,VWS V14.01,2013-06-07 13:52:00,
2013-06-07 08:57:00,73.9,65.1,29.97,NNE,19,0.0,3.0,74,0.00,,SCT020,0.00,VWS V14.01,2013-06-07 13:57:00,
2013-06-07 09:00:00,72.5,65.3,29.97,North,10,2.0,3.0,78,0.00,,SCT110,0.00,VWS V14.01,2013-06-07 14:00:00,
2013-06-07 09:02:00,73.9,65.1,29.97,NNE,30,0.0,1.0,74,0.00,,SCT020,0.00,VWS V14.01,2013-06-07 14:02:00,
2013-06-07 09:07:00,73.7,65.3,29.97,NNE,30,0.0,2.0,75,0.00,,OVC060,0.00,VWS V14.01,2013-06-07 14:07:00,
2013-06-07 09:10:00,73.9,65.1,29.97,NNE,19,0.0,3.0,74,0.00,,SCT110,0.00,VWS V14.01,2013-06-07 14:10:00,
2013-06-07 09:12:00,73.7,65.3,29.97,NNE,30,0.0,1.0,75,0.00,,OVC060,0.00,VWS V14.01,2013-06-07 14:12:00,
2013-06-07 09:17:00,74.2,65.4,29.98,NE,38,0.0,2.0,74,0.00,,OVC060,0.00,VWS V14.01,2013-06-07 14:17:00,
2013-06-07 09:20:00,73.7,65.3,29.97,NNE,30,0.0,2.0,75,0.00,,SCT110,0.00,VWS V14.01,2013-06-07 14:20:00,
2013-06-07 09:22:00,74.9,65.3,29.98,NE,46,1.0,4.0,72,0.00,,OVC060,0.00,VWS V14.01,2013-06-07 14:22:00,
2013-06-07 09:27:00,75.1,65.5,29.98,ENE,59,0.0,0.0,72,0.00,,OVC060,0.00,VWS V14.01,2013-06-07 14:27:00,
2013-06-07 09:30:00,74.2,65.4,29.98,NE,38,0.0,2.0,74,0.00,,SCT110,0.00,VWS V14.01,2013-06-07 14:30:00,
2013-06-07 09:32:00,75.5,65.8,29.98,SE,128,0.0,4.0,72,0.00,,OVC060,0.00,VWS V14.01,2013-06-07 14:32:00,
2013-06-07 09:37:00,76.2,65.7,29.98,ESE,114,0.0,6.0,70,0.00,,OVC060,0.00,VWS V14.01,2013-06-07 14:37:00,
2013-06-07 09:40:00,75.1,65.5,29.98,ENE,59,0.0,4.0,72,0.00,,SCT110,0.00,VWS V14.01,2013-06-07 14:40:00,
2013-06-07 09:42:00,76.5,66.0,29.98,ESE,111,2.0,4.0,70,0.00,,OVC060,0.00,VWS V14.01,2013-06-07 14:42:00,
2013-06-07 09:47:00,76.9,66.0,29.98,East,88,1.0,4.0,69,0.00,,OVC060,0.00,VWS V14.01,2013-06-07 14:47:00,
2013-06-07 09:50:00,76.2,65.7,29.98,ESE,114,0.0,6.0,70,0.00,,SCT110,0.00,VWS V14.01,2013-06-07 14:50:00,
2013-06-07 09:52:00,77.4,66.4,29.98,ESE,121,4.0,4.0,69,0.00,,OVC060,0.00,VWS V14.01,2013-06-07 14:52:00,
2013-06-07 09:57:00,77.8,66.8,29.98,South,190,1.0,4.0,69,0.00,,OVC060,0.00,VWS V14.01,2013-06-07 14:57:00,
2013-06-07 10:00:00,76.9,66.0,29.98,East,88,1.0,4.0,69,0.00,,SCT110,0.00,VWS V14.01,2013-06-07 15:00:00,
2013-06-07 10:02:00,77.8,66.0,29.98,SE,140,0.0,4.0,67,0.00,,OVC060,0.00,VWS V14.01,2013-06-07 15:02:00,
2013-06-07 10:07:00,77.6,65.8,29.98,SE,130,0.0,4.0,67,0.00,,BKN100,0.00,VWS V14.01,2013-06-07 15:07:00,
2013-06-07 10:10:00,77.8,66.8,29.98,South,190,1.0,4.0,69,0.00,,SCT110,0.00,VWS V14.01,2013-06-07 15:10:00,
2013-06-07 10:12:00,78.0,66.2,29.98,SSE,150,0.0,2.0,67,0.00,,BKN100,0.00,VWS V14.01,2013-06-07 15:12:00,
2013-06-07 10:17:00,78.3,66.0,29.98,WNW,289,0.0,3.0,66,0.00,,BKN100,0.00,VWS V14.01,2013-06-07 15:17:00,
2013-06-07 10:20:00,77.6,65.8,29.98,SE,130,0.0,4.0,67,0.00,,SCT110,0.00,VWS V14.01,2013-06-07 15:20:00,
2013-06-07 10:22:00,78.9,67.0,29.98,SSW,196,0.0,2.0,67,0.00,,BKN100,0.00,VWS V14.01,2013-06-07 15:22:00,
2013-06-07 10:27:00,79.1,65.9,29.98,East,101,1.0,5.0,64,0.00,,BKN100,0.00,VWS V14.01,2013-06-07 15:27:00,
2013-06-07 10:30:00,78.3,66.0,29.98,WNW,289,0.0,3.0,66,0.00,,SCT110,0.00,VWS V14.01,2013-06-07 15:30:00,
2013-06-07 10:32:00,78.7,65.5,29.98,ESE,112,0.0,4.0,64,0.00,,BKN100,0.00,VWS V14.01,2013-06-07 15:32:00,
2013-06-07 10:37:00,78.3,66.0,29.98,ENE,66,0.0,5.0,66,0.00,,BKN100,0.00,VWS V14.01,2013-06-07 15:37:00,
2013-06-07 10:40:00,79.1,65.9,29.98,East,101,0.0,5.0,64,0.00,,SCT110,0.00,VWS V14.01,2013-06-07 15:40:00,
2013-06-07 10:42:00,78.3,66.0,29.98,SE,144,0.0,5.0,66,0.00,,BKN100,0.00,VWS V14.01,2013-06-07 15:42:00,
2013-06-07 10:47:00,78.5,65.8,29.98,SE,137,1.0,5.0,65,0.00,,BKN100,0.00,VWS V14.01,2013-06-07 15:47:00,
2013-06-07 10:50:00,78.3,66.0,29.98,ENE,66,0.0,5.0,66,0.00,,SCT110,0.00,VWS V14.01,2013-06-07 15:50:00,
2013-06-07 10:52:00,78.7,66.0,29.98,ESE,113,2.0,4.0,65,0.00,,BKN100,0.00,VWS V14.01,2013-06-07 15:52:00,
2013-06-07 10:57:00,78.3,64.7,29.98,ESE,105,1.0,5.0,63,0.00,,BKN100,0.00,VWS V14.01,2013-06-07 15:57:00,
2013-06-07 11:00:00,78.5,65.8,29.98,SE,137,1.0,5.0,65,0.00,,SCT110,0.00,VWS V14.01,2013-06-07 16:00:00,
2013-06-07 11:02:00,78.0,65.3,29.98,ESE,105,0.0,1.0,65,0.00,,BKN100,0.00,VWS V14.01,2013-06-07 16:02:00,
2013-06-07 11:07:00,77.6,64.0,29.98,SW,232,0.0,4.0,63,0.00,,BKN095,0.00,VWS V14.01,2013-06-07 16:07:00,
2013-06-07 11:10:00,78.3,64.7,29.98,ESE,105,1.0,5.0,63,0.00,,SCT110,0.00,VWS V14.01,2013-06-07 16:10:00,
2013-06-07 11:12:00,77.2,65.0,29.98,SW,235,0.0,1.0,66,0.00,,BKN095,0.00,VWS V14.01,2013-06-07 16:12:00,
2013-06-07 11:17:00,77.1,64.9,29.98,SSE,167,0.0,4.0,66,0.00,,BKN095,0.00,VWS V14.01,2013-06-07 16:17:00,
2013-06-07 11:20:00,77.6,64.0,29.98,SW,232,0.0,4.0,63,0.00,,SCT110,0.00,VWS V14.01,2013-06-07 16:20:00,
2013-06-07 11:22:00,77.1,64.9,29.98,SW,230,0.0,2.0,66,0.00,,BKN095,0.00,VWS V14.01,2013-06-07 16:22:00,
2013-06-07 11:27:00,77.2,65.0,29.98,SE,126,0.0,2.0,66,0.00,,BKN095,0.00,VWS V14.01,2013-06-07 16:27:00,
2013-06-07 11:30:00,77.1,64.4,29.98,SSE,167,0.0,4.0,65,0.00,,SCT110,0.00,VWS V14.01,2013-06-07 16:30:00,
2013-06-07 11:32:00,77.4,64.7,29.98,SE,132,0.0,2.0,65,0.00,,BKN095,0.00,VWS V14.01,2013-06-07 16:32:00,
2013-06-07 11:37:00,77.6,64.0,29.98,SE,126,0.0,4.0,63,0.00,,BKN095,0.00,VWS V14.01,2013-06-07 16:37:00,
2013-06-07 11:40:00,77.2,65.0,29.98,SE,126,0.0,2.0,66,0.00,,SCT110,0.00,VWS V14.01,2013-06-07 16:40:00,
2013-06-07 11:42:00,77.8,65.1,29.98,SE,126,0.0,1.0,65,0.00,,BKN095,0.00,VWS V14.01,2013-06-07 16:42:00,
2013-06-07 11:47:00,77.8,64.2,29.97,SE,144,0.0,4.0,63,0.00,,BKN095,0.00,VWS V14.01,2013-06-07 16:47:00,
2013-06-07 11:50:00,77.6,64.0,29.98,SE,126,0.0,4.0,63,0.00,,SCT110,0.00,VWS V14.01,2013-06-07 16:50:00,
2013-06-07 11:52:00,78.0,65.7,29.97,SE,144,0.0,0.0,66,0.00,,BKN095,0.00,VWS V14.01,2013-06-07 16:52:00,
2013-06-07 11:57:00,78.1,64.5,29.97,WSW,252,0.0,4.0,63,0.00,,BKN095,0.00,VWS V14.01,2013-06-07 16:57:00,
2013-06-07 12:00:00,77.8,64.2,29.97,SE,144,0.0,4.0,63,0.00,,SCT110,0.00,VWS V14.01,2013-06-07 17:00:00,
2013-06-07 12:02:00,78.3,65.1,29.97,SSE,147,0.0,2.0,64,0.00,,BKN095,0.00,VWS V14.01,2013-06-07 17:02:00,
2013-06-07 12:07:00,78.5,65.3,29.97,SE,142,0.0,0.0,64,0.00,,SCT070,0.00,VWS V14.01,2013-06-07 17:07:00,
2013-06-07 12:10:00,78.1,64.5,29.97,WSW,252,0.0,4.0,63,0.00,,SCT110,0.00,VWS V14.01,2013-06-07 17:10:00,
2013-06-07 12:12:00,78.5,64.9,29.97,ESE,119,0.0,5.0,63,0.00,,SCT070,0.00,VWS V14.01,2013-06-07 17:12:00,
2013-06-07 12:17:00,78.7,65.1,29.98,SSE,158,1.0,4.0,63,0.00,,SCT070,0.00,VWS V14.01,2013-06-07 17:17:00,
2013-06-07 12:20:00,78.5,65.3,29.97,SE,142,0.0,2.0,64,0.00,,SCT110,0.00,VWS V14.01,2013-06-07 17:20:00,
2013-06-07 12:22:00,78.9,65.2,29.98,ESE,116,0.0,4.0,63,0.00,,SCT070,0.00,VWS V14.01,2013-06-07 17:22:00,
2013-06-07 12:27:00,79.1,65.9,29.98,ESE,116,0.0,0.0,64,0.00,,SCT070,0.00,VWS V14.01,2013-06-07 17:27:00,
2013-06-07 12:30:00,78.7,65.1,29.98,SSW,207,0.0,5.0,63,0.00,,SCT110,0.00,VWS V14.01,2013-06-07 17:30:00,
2013-06-07 12:32:00,79.1,64.5,29.98,ESE,116,0.0,1.0,61,0.00,,SCT070,0.00,VWS V14.01,2013-06-07 17:32:00,
2013-06-07 12:37:00,79.1,65.4,29.98,ESE,116,0.0,0.0,63,0.00,,SCT070,0.00,VWS V14.01,2013-06-07 17:37:00,
2013-06-07 12:40:00,79.1,65.9,29.98,ESE,116,0.0,4.0,64,0.00,,SCT110,0.00,VWS V14.01,2013-06-07 17:40:00,
2013-06-07 12:42:00,79.1,65.4,29.98,ESE,117,0.0,2.0,63,0.00,,SCT070,0.00,VWS V14.01,2013-06-07 17:42:00,
2013-06-07 12:47:00,79.1,64.5,29.98,ESE,115,0.0,0.0,61,0.00,,SCT070,0.00,VWS V14.01,2013-06-07 17:47:00,
2013-06-07 12:50:00,79.1,65.4,29.98,ESE,116,0.0,1.0,63,0.00,,SCT110,0.00,VWS V14.01,2013-06-07 17:50:00,
2013-06-07 12:52:00,79.3,65.2,29.98,ESE,115,0.0,1.0,62,0.00,,SCT070,0.00,VWS V14.01,2013-06-07 17:52:00,
2013-06-07 12:57:00,79.6,65.9,29.98,ESE,117,0.0,0.0,63,0.00,,SCT070,0.00,VWS V14.01,2013-06-07 17:57:00,
2013-06-07 13:00:00,79.1,64.5,29.98,ESE,115,0.0,2.0,61,0.00,,SCT110,0.00,VWS V14.01,2013-06-07 18:00:00,
2013-06-07 13:02:00,80.0,65.8,29.97,ESE,117,1.0,1.0,62,0.00,,SCT070,0.00,VWS V14.01,2013-06-07 18:02:00,
2013-06-07 13:07:00,80.0,65.8,29.97,ESE,117,0.0,0.0,62,0.00,,BKN120,0.00,VWS V14.01,2013-06-07 18:07:00,
2013-06-07 13:10:00,79.6,65.9,29.98,ESE,117,0.0,1.0,63,0.00,,SCT110,0.00,VWS V14.01,2013-06-07 18:10:00,
2013-06-07 13:13:00,79.6,65.0,29.97,ESE,117,0.0,0.0,61,0.00,,BKN120,0.00,VWS V14.01,2013-06-07 18:13:00,
2013-06-07 13:18:00,79.4,66.2,29.98,ESE,117,0.0,0.0,64,0.00,,BKN120,0.00,VWS V14.01,2013-06-07 18:18:00,
2013-06-07 13:20:00,80.0,65.8,29.97,ESE,117,0.0,1.0,62,0.00,,SCT110,0.00,VWS V14.01,2013-06-07 18:20:00,
2013-06-07 13:23:00,79.1,65.4,29.98,ESE,117,0.0,0.0,63,0.00,,BKN120,0.00,VWS V14.01,2013-06-07 18:23:00,
2013-06-07 13:28:00,78.5,65.3,29.98,ESE,117,0.0,0.0,64,0.00,,BKN120,0.00,VWS V14.01,2013-06-07 18:28:00,
2013-06-07 13:30:00,79.4,66.2,29.98,ESE,117,0.0,0.0,64,0.00,,SCT110,0.00,VWS V14.01,2013-06-07 18:30:00,
2013-06-07 13:33:00,78.0,65.3,29.97,ESE,117,0.0,0.0,65,0.00,,BKN120,0.00,VWS V14.01,2013-06-07 18:33:00,
2013-06-07 13:39:00,77.6,66.6,29.97,ESE,117,0.0,0.0,69,0.01,,BKN120,0.01,VWS V14.01,2013-06-07 18:39:00,
2013-06-07 13:40:00,78.7,65.1,29.98,ESE,117,0.0,0.0,63,0.00,,SCT110,0.00,VWS V14.01,2013-06-07 18:40:00,
2013-06-07 13:44:00,76.7,68.6,29.97,ESE,117,0.0,1.0,76,0.09,,,0.09,VWS V14.01,2013-06-07 18:44:00,
2013-06-07 13:49:00,74.9,68.3,29.98,ESE,117,0.0,0.0,80,0.13,,,0.13,VWS V14.01,2013-06-07 18:49:00,
2013-06-07 13:50:00,77.8,66.4,29.97,ESE,117,0.0,0.0,68,0.00,,SCT110,0.00,VWS V14.01,2013-06-07 18:50:00,
2013-06-07 13:54:00,73.7,67.9,29.98,ESE,117,0.0,0.0,82,0.14,,,0.14,VWS V14.01,2013-06-07 18:54:00,
2013-06-07 14:00:00,73.0,67.9,29.98,ESE,117,0.0,0.0,84,0.14,,,0.14,VWS V14.01,2013-06-07 19:00:00,
2013-06-07 14:05:00,72.5,68.1,29.97,ESE,117,0.0,0.0,86,0.14,,SCT110,0.14,VWS V14.01,2013-06-07 19:05:00,
2013-06-07 14:10:00,72.3,68.2,29.97,ESE,117,0.0,0.0,87,0.14,,SCT110,0.14,VWS V14.01,2013-06-07 19:10:00,
2013-06-07 14:15:00,72.0,68.3,29.97,ESE,117,0.0,0.0,88,0.14,,SCT110,0.14,VWS V14.01,2013-06-07 19:15:00,
2013-06-07 14:20:00,71.8,68.4,29.97,ESE,117,0.0,0.0,89,0.14,,SCT110,0.14,VWS V14.01,2013-06-07 19:20:00,
2013-06-07 14:26:00,71.8,68.7,29.97,ESE,117,0.0,0.0,90,0.15,,SCT110,0.15,VWS V14.01,2013-06-07 19:26:00,
2013-06-07 14:30:00,72.0,68.3,29.97,ESE,117,0.0,0.0,88,0.14,,SCT110,0.14,VWS V14.01,2013-06-07 19:30:00,
2013-06-07 14:31:00,71.8,68.7,29.97,ESE,117,0.0,0.0,90,0.15,,SCT110,0.15,VWS V14.01,2013-06-07 19:31:00,
2013-06-07 14:36:00,71.8,68.7,29.97,SSE,155,0.0,2.0,90,0.15,,SCT110,0.15,VWS V14.01,2013-06-07 19:36:00,
2013-06-07 14:40:00,71.8,68.7,29.97,ESE,117,0.0,0.0,90,0.15,,SCT110,0.15,VWS V14.01,2013-06-07 19:40:00,
2013-06-07 14:41:00,71.8,69.0,29.97,SSE,155,0.0,0.0,91,0.15,,SCT110,0.15,VWS V14.01,2013-06-07 19:41:00,
2013-06-07 14:46:00,72.0,68.9,29.97,SSE,155,0.0,1.0,90,0.15,,SCT110,0.15,VWS V14.01,2013-06-07 19:46:00,
2013-06-07 14:50:00,71.6,68.5,29.97,SSE,155,0.0,2.0,90,0.15,,SCT110,0.15,VWS V14.01,2013-06-07 19:50:00,
2013-06-07 14:51:00,72.0,68.9,29.97,SSE,155,0.0,0.0,90,0.02,,SCT110,0.15,VWS V14.01,2013-06-07 19:51:00,
2013-06-07 14:57:00,72.0,69.2,29.97,SSE,155,1.0,1.0,91,0.02,,SCT110,0.15,VWS V14.01,2013-06-07 19:57:00,
2013-06-07 15:00:00,72.0,68.9,29.97,SSE,155,0.0,1.0,90,0.15,,SCT110,0.15,VWS V14.01,2013-06-07 20:00:00,
2013-06-07 15:10:00,72.0,69.2,29.97,SSE,155,0.0,1.0,91,0.02,,SCT110,0.15,VWS V14.01,2013-06-07 20:10:00,
2013-06-07 15:20:00,72.3,69.5,29.97,SSE,158,0.0,2.0,91,0.01,,SCT110,0.15,VWS V14.01,2013-06-07 20:20:00,
2013-06-07 15:30:00,73.0,70.5,29.97,SSE,158,0.0,0.0,92,0.01,,SCT110,0.15,VWS V14.01,2013-06-07 20:30:00,
2013-06-07 15:40:00,73.5,71.0,29.97,SSE,158,0.0,0.0,92,0.01,,SCT110,0.15,VWS V14.01,2013-06-07 20:40:00,
2013-06-07 15:50:00,73.7,70.9,29.96,SSE,158,0.0,0.0,91,0.00,,SCT110,0.15,VWS V14.01,2013-06-07 20:50:00,
2013-06-07 16:00:00,73.4,70.0,29.95,SSE,158,0.0,2.0,89,0.00,,SCT110,0.15,VWS V14.01,2013-06-07 21:00:00,
2013-06-07 16:10:00,73.2,69.8,29.95,SSW,202,0.0,3.0,89,0.00,,SCT110,0.15,VWS V14.01,2013-06-07 21:10:00,
2013-06-07 16:20:00,72.9,68.8,29.95,NE,45,1.0,5.0,87,0.00,,SCT110,0.15,VWS V14.01,2013-06-07 21:20:00,
2013-06-07 16:30:00,72.2,68.1,29.94,South,180,0.0,2.0,87,0.00,,SCT110,0.15,VWS V14.01,2013-06-07 21:30:00,
2013-06-07 16:40:00,71.8,67.7,29.94,SSE,158,0.0,4.0,87,0.00,,SCT110,0.15,VWS V14.01,2013-06-07 21:40:00,
2013-06-07 16:50:00,71.9,68.2,29.93,SSE,158,0.0,0.0,88,0.00,,SCT110,0.15,VWS V14.01,2013-06-07 21:50:00,
2013-06-07 17:00:00,72.1,68.0,29.91,SSE,158,0.0,0.0,87,0.00,,SCT110,0.15,VWS V14.01,2013-06-07 22:00:00,
2013-06-07 17:10:00,72.2,67.4,29.91,SSE,158,0.0,0.0,85,0.00,,SCT110,0.15,VWS V14.01,2013-06-07 22:10:00,
2013-06-07 17:20:00,72.2,67.4,29.90,SSE,158,0.0,0.0,85,0.00,,SCT110,0.15,VWS V14.01,2013-06-07 22:20:00,
2013-06-07 17:30:00,72.4,68.3,29.90,SSE,158,0.0,0.0,87,0.00,,SCT110,0.15,VWS V14.01,2013-06-07 22:30:00,
2013-06-07 17:40:00,72.2,67.8,29.90,SSE,158,0.0,0.0,86,0.00,,SCT110,0.15,VWS V14.01,2013-06-07 22:40:00,
2013-06-07 17:50:00,72.5,67.1,29.89,SSE,158,0.0,1.0,83,0.00,,SCT110,0.15,VWS V14.01,2013-06-07 22:50:00,
2013-06-07 18:00:00,73.2,67.7,29.89,SSE,158,0.0,0.0,83,0.00,,SCT110,0.15,VWS V14.01,2013-06-07 23:00:00,
2013-06-07 18:10:00,74.1,67.5,29.89,SSE,158,0.0,0.0,80,0.00,,SCT110,0.15,VWS V14.01,2013-06-07 23:10:00,
2013-06-07 18:20:00,74.7,67.4,29.89,SSE,158,0.0,0.0,78,0.00,,SCT110,0.15,VWS V14.01,2013-06-07 23:20:00,
2013-06-07 18:30:00,75.2,69.0,29.89,SSE,158,0.0,0.0,81,0.00,,SCT110,0.15,VWS V14.01,2013-06-07 23:30:00,
2013-06-07 18:40:00,75.6,66.7,29.89,SSE,158,0.0,0.0,74,0.00,,SCT110,0.15,VWS V14.01,2013-06-07 23:40:00,
2013-06-07 18:50:00,75.6,67.1,29.88,SSE,158,0.0,0.0,75,0.00,,SCT110,0.15,VWS V14.01,2013-06-07 23:50:00,
2013-06-07 19:00:00,75.8,68.1,29.88,SSE,158,0.0,0.0,77,0.00,,SCT110,0.15,VWS V14.01,2013-06-08 00:00:00,
2013-06-07 19:10:00,75.9,68.6,29.88,SSE,158,0.0,0.0,78,0.00,,SCT110,0.15,VWS V14.01,2013-06-08 00:10:00,
2013-06-07 19:20:00,75.5,68.5,29.87,SSE,158,0.0,0.0,79,0.00,,SCT110,0.15,VWS V14.01,2013-06-08 00:20:00,
2013-06-07 19:30:00,74.9,67.9,29.88,SSE,158,0.0,0.0,79,0.00,,SCT110,0.15,VWS V14.01,2013-06-08 00:30:00,
2013-06-07 19:40:00,74.4,68.2,29.88,SSE,158,0.0,0.0,81,0.00,,SCT110,0.15,VWS V14.01,2013-06-08 00:40:00,
2013-06-07 19:50:00,74.2,68.4,29.88,SSE,158,0.0,0.0,82,0.00,,SCT110,0.15,VWS V14.01,2013-06-08 00:50:00,
2013-06-07 20:00:00,74.0,68.2,29.88,SSE,158,0.0,1.0,82,0.00,,SCT110,0.15,VWS V14.01,2013-06-08 01:00:00,
2013-06-07 20:10:00,73.7,68.2,29.88,SSE,158,0.0,0.0,83,0.00,,SCT110,0.15,VWS V14.01,2013-06-08 01:10:00,
2013-06-07 20:20:00,73.4,67.9,29.88,SSE,158,0.0,0.0,83,0.00,,SCT110,0.15,VWS V14.01,2013-06-08 01:20:00,
2013-06-07 20:30:00,73.0,67.5,29.87,SSE,158,0.0,0.0,83,0.00,,SCT110,0.15,VWS V14.01,2013-06-08 01:30:00,
2013-06-07 20:40:00,72.6,67.5,29.87,SSE,158,0.0,0.0,84,0.00,,SCT110,0.15,VWS V14.01,2013-06-08 01:40:00,
2013-06-07 20:50:00,72.2,67.8,29.88,SSE,158,0.0,0.0,86,0.00,,SCT110,0.15,VWS V14.01,2013-06-08 01:50:00,
2013-06-07 21:00:00,71.8,67.4,29.88,SSE,158,0.0,0.0,86,0.00,,SCT110,0.15,VWS V14.01,2013-06-08 02:00:00,
2013-06-07 21:10:00,71.3,67.2,29.88,SSE,158,0.0,0.0,87,0.00,,SCT110,0.15,VWS V14.01,2013-06-08 02:10:00,
2013-06-07 21:20:00,70.9,67.2,29.88,SSE,158,0.0,0.0,88,0.00,,SCT110,0.15,VWS V14.01,2013-06-08 02:20:00,
2013-06-07 21:30:00,70.3,66.6,29.88,SSE,158,0.0,0.0,88,0.00,,SCT110,0.15,VWS V14.01,2013-06-08 02:30:00,
2013-06-07 21:40:00,70.0,66.9,29.88,SSE,158,0.0,0.0,90,0.00,,SCT110,0.15,VWS V14.01,2013-06-08 02:40:00,
2013-06-07 21:50:00,69.7,66.6,29.89,SSE,158,0.0,0.0,90,0.00,,SCT110,0.15,VWS V14.01,2013-06-08 02:50:00,
2013-06-07 22:00:00,69.3,66.2,29.89,SSE,158,0.0,0.0,90,0.00,,SCT110,0.15,VWS V14.01,2013-06-08 03:00:00,
2013-06-07 22:10:00,69.2,66.2,29.89,SSE,158,0.0,0.0,90,0.00,,SCT110,0.15,VWS V14.01,2013-06-08 03:10:00,
2013-06-07 22:20:00,68.9,66.2,29.89,SSE,158,0.0,0.0,91,0.00,,SCT110,0.15,VWS V14.01,2013-06-08 03:20:00,
2013-06-07 22:30:00,68.8,66.4,29.89,SSE,158,0.0,0.0,92,0.00,,SCT110,0.15,VWS V14.01,2013-06-08 03:30:00,
2013-06-07 22:40:00,68.7,66.3,29.89,SSE,158,0.0,0.0,92,0.00,,SCT110,0.15,VWS V14.01,2013-06-08 03:40:00,
2013-06-07 22:50:00,68.5,66.1,29.89,SSE,158,0.0,0.0,92,0.00,,SCT110,0.15,VWS V14.01,2013-06-08 03:50:00,
2013-06-07 23:00:00,68.4,66.3,29.90,SSE,158,0.0,0.0,93,0.00,,SCT110,0.15,VWS V14.01,2013-06-08 04:00:00,
2013-06-07 23:10:00,68.3,65.9,29.90,SSE,158,0.0,0.0,92,0.00,,SCT110,0.15,VWS V14.01,2013-06-08 04:10:00,
2013-06-07 23:20:00,68.0,65.6,29.90,SSE,158,0.0,0.0,92,0.00,,SCT110,0.15,VWS V14.01,2013-06-08 04:20:00,
2013-06-07 23:30:00,67.8,65.7,29.91,SSE,158,0.0,0.0,93,0.00,,SCT110,0.15,VWS V14.01,2013-06-08 04:30:00,
2013-06-07 23:40:00,67.8,65.7,29.91,SSE,158,0.0,0.0,93,0.00,,SCT110,0.15,VWS V14.01,2013-06-08 04:40:00,
2013-06-07 23:50:00,67.9,65.8,29.92,SSE,158,0.0,0.0,93,0.00,,SCT110,0.15,VWS V14.01,2013-06-08 04:50:00,